Find Starlink 31338

NORAD ID: 59156 Int'l Des: 2024-044 Owner: SPXS Country: US Constellation: starlink operational
LEOCIRCULAR

当前视图

正在加载3D地球...

About Starlink 31338

Starlink 31338 (NORAD 59156) is a starlink constellation satellite (v2 mini) launched Mar 4, 2024 by SPXS of US. It operates in LEO, CIRCULAR orbit with a mass of 730.00 kg.

即将过境

Passes for default location (London). Set your location on the main map for personalized predictions.

高度历史

Loading altitude history...

两行轨道根数

1 59156U 24044E 26255.04458028 -.00001359 00000-0 -39858-4 0 9998
2 59156 43.0024 138.2530 0001280 273.9119 86.1587 15.27587338142029
Epoch: Sep 12, 2026 • Age: 20 hours

当前状态

高度 487.1 km
远地点 / 近地点 N/A
速度 7.62 km/s
星下点 -19.80°S, 32.09°E
发射日期 Mar 4, 2024
运行时间 2.5 years
类型 internet

技术详情

分类 Payload
质量 730.00 kg
干质量 700.00 kg
总质量 730.00 kg
长度 0.30 m
直径 4.10 m
跨度 29.00 m
形状 Box + pan
制造商 SPXS
平台类型 Starlink V2M
阶段状态 In Orbit
所有者/国家 SPXS/US

Most Searched